Location: Arthurs Seat
(13.1500°N, 59.6000°W)
Time: 20:37:37
(UTC+00:00)

Okean 1-7 - Pass Details

Date: 25 August 2019
Orbit: 590 x 620 km, 82.5° (Epoch: 23 October)

Event Time Altitude Azimuth Distance (km) Brightness Sun altitude
Rises 22:46:26 0° 9° (N) 2,880 6.6 -8.6°
Reaches altitude 10° 22:48:48 10° 18° (NNE) 1,971 5.6 -9.1°
Maximum altitude 22:52:49 36° 84° (E) 977 3.6 -10.1°
Drops below altitude 10° 22:56:48 10° 151° (SSE) 1,956 5.2 -11.0°
Sets 22:59:08 0° 160° (SSE) 2,854 6.1 -11.6°
Enters shadow 22:59:16 - 160° (SSE) 2,909 6.2 -11.6°
